Galliano, LA

6:06 AM CDT on September 30, 2016 (GMT -0500)
Galliano

Weather History for KGAO - March, 2014

Change the Weather History Date:

Tuesday, March 11, 2014

  Actual Average (KAXO) Record (KAXO)
Temperature  
Mean Temperature 64 °F -  
Max Temperature 71 °F 62 °F 75 °F (2012)
Min Temperature 57 °F 58 °F 44 °F (1998)
Growing Degree Days 14 (Base 50)    
Moisture  
Dew Point 64 °F    
Average Humidity 95    
Maximum Humidity 100    
Minimum Humidity 86    
Precipitation  
Precipitation 0.34 in - - ()
Sea Level Pressure  
Sea Level Pressure 29.81 in    
Wind  
Wind Speed 4 mph (SSE)    
Max Wind Speed 10 mph    
Max Gust Speed -    
Visibility 8 miles    
Events Fog , Rain , Thunderstorm    
Averages and records for this station are not official NWS values.
T = Trace of Precipitation, MM = Missing Value Source: NWS Daily Summary

Daily Weather History Graph

Daily Weather History Graph

Search for Another Location

Airport or City:

Trip Planner

Search our weather history database for the weather conditions in past years. The results will help you decide how hot, cold, wet, or windy it might be!

Date:

Astronomy

Mar. 11, 2014 Rise Set
Actual Time 7:15 AM CDT 7:06 PM CDT
Civil Twilight 6:51 AM CDT 7:30 PM CDT
Nautical Twilight 6:24 AM CDT 7:58 PM CDT
Astronomical Twilight 5:56 AM CDT 8:26 PM CDT
Moon 2:58 PM CDT (3/11) 3:52 AM CDT (3/11)
Length of Visible Light 12h 39m
Length of Day
11h 51m
Waxing Gibbous, 78% of the Moon is Illuminated
Mar 11
Waxing Gibbous
Mar 16
Full
Mar 23
Last Quarter
Mar 30
New
Apr 7
First Quarter

Hourly Weather History & Observations

Time (CDT) Temp. Dew Point Humidity Pressure Visibility Wind Dir Wind Speed Gust Speed Precip Events Conditions
12:15 AM 66.2 °F 62.8 °F 89% 29.98 in 10.0 mi ESE 3.5 mph - N/A   Overcast
12:35 AM 66.2 °F 63.0 °F 89% 29.97 in 10.0 mi Calm Calm - N/A   Overcast
12:55 AM 66.2 °F 63.0 °F 89% 29.97 in 10.0 mi Calm Calm - N/A   Overcast
1:15 AM 65.7 °F 63.0 °F 91% 29.95 in 10.0 mi East 4.6 mph - N/A   Mostly Cloudy
1:35 AM 65.3 °F 63.0 °F 92% 29.94 in 10.0 mi ESE 4.6 mph - N/A   Overcast
1:55 AM 65.3 °F 63.3 °F 93% 29.94 in 10.0 mi ESE 3.5 mph - N/A   Overcast
2:15 AM 65.3 °F 63.5 °F 94% 29.92 in 10.0 mi ESE 4.6 mph - N/A   Mostly Cloudy
2:35 AM 65.3 °F 63.9 °F 95% 29.91 in 10.0 mi ESE 5.8 mph - N/A   Mostly Cloudy
2:55 AM 65.3 °F 64.2 °F 96% 29.89 in 10.0 mi ESE 4.6 mph - N/A   Mostly Cloudy
3:15 AM 65.7 °F 64.4 °F 96% 29.88 in 10.0 mi East 4.6 mph - N/A   Overcast
3:35 AM 65.5 °F 64.4 °F 96% 29.87 in 10.0 mi ESE 4.6 mph - N/A   Scattered Clouds
3:55 AM 65.8 °F 64.4 °F 95% 29.86 in 10.0 mi ESE 5.8 mph - N/A   Scattered Clouds
4:15 AM 66.6 °F 64.9 °F 95% 29.86 in 10.0 mi ESE 5.8 mph - N/A   Overcast
4:35 AM 67.1 °F 65.3 °F 94% 29.86 in 10.0 mi Calm Calm - N/A   Overcast
4:55 AM 66.7 °F 65.3 °F 95% 29.86 in 10.0 mi Calm Calm - N/A   Overcast
5:15 AM 66.7 °F 65.5 °F 96% 29.85 in 10.0 mi East 3.5 mph - N/A   Overcast
5:35 AM 66.7 °F 65.3 °F 95% 29.86 in 10.0 mi Calm Calm - N/A   Overcast
5:55 AM 66.7 °F 65.3 °F 95% 29.86 in 10.0 mi Calm Calm - N/A   Overcast
6:15 AM 66.7 °F 65.3 °F 95% 29.86 in 10.0 mi Calm Calm - N/A   Overcast
6:35 AM 66.2 °F 65.1 °F 96% 29.86 in 5.0 mi East 3.5 mph - N/A   Drizzle
6:55 AM 64.9 °F 64.4 °F 98% 29.85 in 7.0 mi ENE 3.5 mph - N/A   Overcast
7:15 AM 63.9 °F 63.5 °F 99% 29.85 in 5.0 mi East 4.6 mph - N/A   Light Drizzle
7:35 AM 63.0 °F 62.8 °F 99% 29.85 in 5.0 mi East 3.5 mph - N/A Rain Rain
7:55 AM 62.6 °F 62.6 °F 100% 29.85 in 5.0 mi North - - N/A   Overcast
8:15 AM 62.6 °F 62.6 °F 100% 29.85 in 5.0 mi East 4.6 mph - N/A   Overcast
8:35 AM 62.6 °F 62.2 °F 99% 29.85 in 5.0 mi East 4.6 mph - N/A   Overcast
8:55 AM 62.6 °F 62.2 °F 99% 29.85 in 5.0 mi ESE 3.5 mph - N/A Thunderstorm Overcast
9:15 AM 62.6 °F 62.2 °F 99% 29.85 in 5.0 mi ESE 3.5 mph - N/A Rain , Thunderstorm Light Thunderstorms and Rain
9:35 AM 62.2 °F 62.1 °F 99% 29.86 in 3.0 mi Calm Calm - 0.02 in Rain , Thunderstorm Thunderstorms and Rain
9:55 AM 62.4 °F 62.1 °F 99% 29.88 in 1.2 mi South 10.4 mph - 0.20 in Rain Heavy Rain
10:15 AM 62.1 °F 61.9 °F 99% 29.86 in 4.0 mi SSW 6.9 mph - 0.10 in Rain Rain
10:35 AM 62.8 °F 62.6 °F 99% 29.86 in 10.0 mi South 5.8 mph - 0.12 in Rain Rain
10:55 AM 63.5 °F 62.8 °F 97% 29.85 in 10.0 mi SE 5.8 mph - 0.12 in Rain Light Rain
11:15 AM 64.0 °F 63.5 °F 98% 29.84 in 10.0 mi Calm Calm - N/A Rain Light Rain
11:35 AM 64.6 °F 63.9 °F 98% 29.82 in 10.0 mi NE 4.6 mph - N/A Rain Light Rain
11:55 AM 64.8 °F 64.0 °F 98% 29.81 in 10.0 mi ENE 8.1 mph - N/A Rain Light Rain
12:15 PM 64.6 °F 64.2 °F 99% 29.80 in 10.0 mi ENE 9.2 mph - 0.01 in Rain Light Rain
12:35 PM 63.5 °F 62.8 °F 97% 29.81 in 7.0 mi East 6.9 mph - 0.01 in Rain Light Rain
12:55 PM 63.5 °F 63.0 °F 98% 29.77 in 10.0 mi East 9.2 mph - 0.01 in   Mostly Cloudy
1:15 PM 63.5 °F 62.8 °F 97% 29.78 in 10.0 mi East 10.4 mph - N/A   Scattered Clouds
1:35 PM 65.3 °F 63.9 °F 95% 29.77 in 10.0 mi ESE 10.4 mph - N/A   Clear
1:55 PM 66.9 °F 64.8 °F 93% 29.75 in 10.0 mi East 4.6 mph - N/A   Scattered Clouds
2:15 PM 69.8 °F 67.1 °F 91% 29.76 in 10.0 mi Calm Calm - N/A   Scattered Clouds
2:35 PM 70.5 °F 67.8 °F 91% 29.75 in 10.0 mi SSW 4.6 mph - N/A   Mostly Cloudy
2:55 PM 70.9 °F 67.5 °F 89% 29.74 in 10.0 mi Calm Calm - N/A   Overcast
3:15 PM 70.9 °F 67.6 °F 89% 29.74 in 10.0 mi Calm Calm - N/A   Overcast
3:35 PM 70.9 °F 67.3 °F 88% 29.72 in 10.0 mi Calm Calm - N/A   Overcast
3:55 PM 71.6 °F 67.6 °F 87% 29.72 in 10.0 mi Calm Calm - N/A   Mostly Cloudy
4:15 PM 71.6 °F 67.6 °F 87% 29.71 in 10.0 mi West 9.2 mph - N/A   Overcast
4:35 PM 70.7 °F 67.3 °F 89% 29.71 in 10.0 mi West 8.1 mph - N/A   Overcast
4:55 PM 68.7 °F 65.5 °F 89% 29.71 in 7.0 mi West 9.2 mph - 0.01 in Rain Light Rain
5:15 PM 68.2 °F 65.3 °F 90% 29.71 in 5.0 mi West 3.5 mph - N/A   Overcast
5:35 PM 69.1 °F 66.2 °F 91% 29.71 in 10.0 mi Calm Calm - N/A   Overcast
5:55 PM 69.1 °F 65.5 °F 88% 29.71 in 10.0 mi SW 4.6 mph - N/A   Overcast
6:15 PM 69.3 °F 65.5 °F 88% 29.71 in 10.0 mi SW 6.9 mph - N/A   Overcast
6:35 PM 68.9 °F 64.6 °F 86% 29.71 in 10.0 mi SSW 3.5 mph - N/A   Overcast
6:55 PM 68.7 °F 64.2 °F 86% 29.71 in 10.0 mi SSW 4.6 mph - N/A   Overcast
7:15 PM 68.0 °F 64.4 °F 88% 29.72 in 10.0 mi SSW 4.6 mph - N/A   Overcast
7:35 PM 67.1 °F 64.8 °F 92% 29.72 in 10.0 mi SW 3.5 mph - N/A   Overcast
7:55 PM 66.2 °F 64.4 °F 94% 29.72 in 10.0 mi SSW 5.8 mph - N/A   Mostly Cloudy
8:15 PM 65.5 °F 64.0 °F 95% 29.73 in 10.0 mi SSW 6.9 mph - N/A   Scattered Clouds
8:35 PM 65.3 °F 63.9 °F 95% 29.74 in 10.0 mi SSW 5.8 mph - N/A   Clear
8:55 PM 64.4 °F 63.5 °F 97% 29.74 in 10.0 mi SSW 5.8 mph - N/A   Clear
9:15 PM 62.6 °F 62.1 °F 98% 29.74 in 10.0 mi South 6.9 mph - N/A   Clear
9:35 PM 61.7 °F 61.0 °F 97% 29.75 in 10.0 mi South 8.1 mph - N/A   Scattered Clouds
9:55 PM 61.0 °F 60.8 °F 99% 29.76 in 0.5 mi SSW 8.1 mph - N/A Fog Fog
10:15 PM 59.9 °F 59.9 °F 100% 29.77 in 4.0 mi SSW 8.1 mph - N/A   Overcast
10:35 PM 59.0 °F 59.0 °F 100% 29.77 in 10.0 mi SSW 4.6 mph - N/A   Overcast
10:55 PM 58.6 °F 58.6 °F 100% 29.78 in 5.0 mi South 6.9 mph - N/A   Overcast
11:15 PM 58.3 °F 58.3 °F 100% 29.77 in 10.0 mi SSW 8.1 mph - N/A   Overcast
11:35 PM 58.1 °F 58.1 °F 100% 29.76 in 4.0 mi SSW 8.1 mph - N/A   Overcast
11:55 PM 57.6 °F 57.6 °F 100% 29.77 in 1.8 mi SW 10.4 mph - N/A   Overcast